Year,Month,Day,Hour,Minute,Value (Times are PST for temperature in C)
2017,02,23,04,41,0.30
2017,02,23,04,42,0.30
2017,02,23,04,43,0.30
2017,02,23,04,44,0.30
2017,02,23,04,45,0.30
2017,02,23,04,46,0.20
2017,02,23,04,47,0.20
2017,02,23,04,48,0.20
2017,02,23,04,49,0.20
2017,02,23,04,50,0.20
2017,02,23,04,51,0.20
2017,02,23,04,52,0.10
2017,02,23,04,53,0.10
2017,02,23,04,54,0.10
2017,02,23,04,55,0.10
2017,02,23,04,56,0.00
2017,02,23,04,57,0.00
2017,02,23,04,58,0.00
2017,02,23,04,59,-0.10
2017,02,23,05,00,-0.10
2017,02,23,05,01,-0.10
2017,02,23,05,02,-0.10
2017,02,23,05,03,-0.10
2017,02,23,05,04,-0.10
2017,02,23,05,05,-0.20
2017,02,23,05,06,-0.20
2017,02,23,05,07,-0.20
2017,02,23,05,08,-0.20
2017,02,23,05,09,-0.20
2017,02,23,05,10,-0.20
2017,02,23,05,11,-0.20
2017,02,23,05,12,-0.20
2017,02,23,05,13,-0.20
2017,02,23,05,14,-0.20
2017,02,23,05,15,-0.20
2017,02,23,05,16,-0.20
2017,02,23,05,17,-0.20
2017,02,23,05,18,-0.20
2017,02,23,05,19,-0.20
2017,02,23,05,20,-0.20
2017,02,23,05,21,-0.20
2017,02,23,05,22,-0.20
2017,02,23,05,23,-0.20
2017,02,23,05,24,-0.20
2017,02,23,05,25,-0.20
2017,02,23,05,26,-0.20
2017,02,23,05,27,-0.20
2017,02,23,05,28,-0.20
2017,02,23,05,29,-0.20
2017,02,23,05,30,-0.20
2017,02,23,05,31,-0.20
2017,02,23,05,32,-0.20
2017,02,23,05,33,-0.30
2017,02,23,05,34,-0.30
2017,02,23,05,35,-0.30
2017,02,23,05,36,-0.30
2017,02,23,05,37,-0.30
2017,02,23,05,38,-0.30
2017,02,23,05,39,-0.20
2017,02,23,05,40,-0.20
2017,02,23,05,41,-0.20
2017,02,23,05,42,-0.20
2017,02,23,05,43,-0.20
2017,02,23,05,44,-0.20
2017,02,23,05,45,-0.20
2017,02,23,05,46,-0.20
2017,02,23,05,47,-0.20
2017,02,23,05,48,-0.20
2017,02,23,05,49,-0.20
2017,02,23,05,50,-0.20
2017,02,23,05,51,-0.20
2017,02,23,05,52,-0.20
2017,02,23,05,53,-0.30
2017,02,23,05,54,-0.30
2017,02,23,05,55,-0.30
2017,02,23,05,56,-0.30
2017,02,23,05,57,-0.30
2017,02,23,05,58,-0.30
2017,02,23,05,59,-0.30
2017,02,23,06,00,-0.30
2017,02,23,06,01,-0.30
2017,02,23,06,02,-0.30
2017,02,23,06,03,-0.30
2017,02,23,06,04,-0.30
2017,02,23,06,05,-0.30
2017,02,23,06,06,-0.30
2017,02,23,06,07,-0.30
2017,02,23,06,08,-0.30
2017,02,23,06,09,-0.30
2017,02,23,06,10,-0.30
2017,02,23,06,11,-0.30
2017,02,23,06,12,-0.30
2017,02,23,06,13,-0.30
2017,02,23,06,14,-0.40
2017,02,23,06,15,-0.40
2017,02,23,06,16,-0.40
2017,02,23,06,17,-0.40
2017,02,23,06,18,-0.40
2017,02,23,06,19,-0.40
2017,02,23,06,20,-0.40
2017,02,23,06,21,-0.40
2017,02,23,06,22,-0.40
2017,02,23,06,23,-0.40
2017,02,23,06,24,-0.40
2017,02,23,06,25,-0.40
2017,02,23,06,26,-0.40
2017,02,23,06,27,-0.40
2017,02,23,06,28,-0.40
2017,02,23,06,29,-0.40
2017,02,23,06,30,-0.40
2017,02,23,06,31,-0.40
2017,02,23,06,32,-0.40
2017,02,23,06,33,-0.40
2017,02,23,06,34,-0.40
2017,02,23,06,35,-0.40
2017,02,23,06,36,-0.40
2017,02,23,06,37,-0.40
2017,02,23,06,38,-0.40
2017,02,23,06,39,-0.40
2017,02,23,06,40,-0.40
2017,02,23,06,41,-0.40
2017,02,23,06,42,-0.40
2017,02,23,06,43,-0.40
2017,02,23,06,44,-0.40
2017,02,23,06,45,-0.40
2017,02,23,06,46,-0.50
2017,02,23,06,47,-0.50
2017,02,23,06,48,-0.50
2017,02,23,06,49,-0.50
2017,02,23,06,50,-0.50
2017,02,23,06,51,-0.50
2017,02,23,06,52,-0.60
2017,02,23,06,53,-0.60
2017,02,23,06,54,-0.60
2017,02,23,06,55,-0.60
2017,02,23,06,56,-0.60
2017,02,23,06,57,-0.60
2017,02,23,06,58,-0.60
2017,02,23,06,59,-0.60
2017,02,23,07,00,-0.60
2017,02,23,07,01,-0.60
2017,02,23,07,02,-0.70
2017,02,23,07,03,-0.70
2017,02,23,07,04,-0.70
2017,02,23,07,05,-0.70
2017,02,23,07,06,-0.70
2017,02,23,07,07,-0.70
2017,02,23,07,08,-0.70
2017,02,23,07,09,-0.70
2017,02,23,07,10,-0.70
2017,02,23,07,11,-0.70
2017,02,23,07,12,-0.70
2017,02,23,07,13,-0.70
2017,02,23,07,14,-0.70
2017,02,23,07,15,-0.70
2017,02,23,07,16,-0.70
2017,02,23,07,17,-0.70
2017,02,23,07,18,-0.70
2017,02,23,07,19,-0.70
2017,02,23,07,20,-0.70
2017,02,23,07,21,-0.70
2017,02,23,07,22,-0.70
2017,02,23,07,23,-0.70
2017,02,23,07,24,-0.70
2017,02,23,07,25,-0.70
2017,02,23,07,26,-0.70
2017,02,23,07,27,-0.70
2017,02,23,07,28,-0.70
2017,02,23,07,29,-0.70
2017,02,23,07,30,-0.70
2017,02,23,07,31,-0.70
2017,02,23,07,32,-0.70
2017,02,23,07,33,-0.70
2017,02,23,07,34,-0.70
2017,02,23,07,35,-0.70
2017,02,23,07,36,-0.70
2017,02,23,07,37,-0.70
2017,02,23,07,38,-0.70
2017,02,23,07,39,-0.70
2017,02,23,07,40,-0.70
2017,02,23,07,41,-0.70
2017,02,23,07,42,-0.70
2017,02,23,07,43,-0.70
2017,02,23,07,44,-0.60
2017,02,23,07,45,-0.60
2017,02,23,07,46,-0.60
2017,02,23,07,47,-0.60
2017,02,23,07,48,-0.60
2017,02,23,07,49,-0.60
2017,02,23,07,50,-0.60
2017,02,23,07,51,-0.60
2017,02,23,07,52,-0.60
2017,02,23,07,53,-0.60
2017,02,23,07,54,-0.60
2017,02,23,07,55,-0.60
2017,02,23,07,56,-0.60
2017,02,23,07,57,-0.60
2017,02,23,07,58,-0.60
2017,02,23,07,59,-0.60
2017,02,23,08,00,-0.60
2017,02,23,08,01,-0.50
2017,02,23,08,02,-0.60
2017,02,23,08,03,-0.60
2017,02,23,08,04,-0.60
2017,02,23,08,05,-0.50
2017,02,23,08,06,-0.50
2017,02,23,08,07,-0.50
2017,02,23,08,08,-0.50
2017,02,23,08,12,-0.50
2017,02,23,08,13,-0.50
2017,02,23,08,14,-0.50
2017,02,23,08,15,-0.50
2017,02,23,08,16,-0.50
2017,02,23,08,17,-0.50
2017,02,23,08,18,-0.40
2017,02,23,08,19,-0.40
2017,02,23,08,20,-0.40
2017,02,23,08,21,-0.40
2017,02,23,08,22,-0.30
2017,02,23,08,23,-0.30
2017,02,23,08,24,-0.30
2017,02,23,08,25,-0.30
2017,02,23,08,26,-0.20
2017,02,23,08,27,-0.20
2017,02,23,08,28,-0.20
2017,02,23,08,29,-0.20
2017,02,23,08,30,-0.10
2017,02,23,08,31,-0.10
2017,02,23,08,32,-0.10
2017,02,23,08,33,0.00
2017,02,23,08,34,0.00
2017,02,23,08,35,0.10
2017,02,23,08,36,0.10
2017,02,23,08,37,0.20
2017,02,23,08,38,0.20
2017,02,23,08,39,0.30
2017,02,23,08,40,0.40
2017,02,23,08,41,0.40
2017,02,23,08,42,0.50
2017,02,23,08,43,0.60
2017,02,23,08,44,0.70
2017,02,23,08,45,0.80
2017,02,23,08,46,0.90
2017,02,23,08,47,0.90
2017,02,23,08,48,1.00
2017,02,23,08,49,1.10
2017,02,23,08,50,1.10
2017,02,23,08,51,1.10
2017,02,23,08,52,1.10
2017,02,23,08,53,1.20
2017,02,23,08,54,1.30
2017,02,23,08,55,1.30
2017,02,23,08,56,1.30
2017,02,23,08,57,1.30
2017,02,23,08,58,1.40
2017,02,23,08,59,1.40
2017,02,23,09,00,1.50
2017,02,23,09,01,1.50
2017,02,23,09,02,1.60
2017,02,23,09,03,1.60
2017,02,23,09,04,1.70
2017,02,23,09,05,1.80
2017,02,23,09,06,1.90
2017,02,23,09,07,2.00
2017,02,23,09,08,2.00
2017,02,23,09,09,2.10
2017,02,23,09,10,2.10
2017,02,23,09,11,2.10
2017,02,23,09,12,2.20
2017,02,23,09,13,2.30
2017,02,23,09,14,2.50
2017,02,23,09,15,2.60
2017,02,23,09,16,2.80
2017,02,23,09,17,2.90
2017,02,23,09,18,3.00
2017,02,23,09,19,3.10
2017,02,23,09,20,3.20
2017,02,23,09,21,3.30
2017,02,23,09,22,3.40
2017,02,23,09,23,3.50
2017,02,23,09,24,3.60
2017,02,23,09,25,3.70
2017,02,23,09,26,3.80
2017,02,23,09,27,3.90
2017,02,23,09,28,4.00
2017,02,23,09,29,4.10
2017,02,23,09,30,4.20
2017,02,23,09,31,4.30
2017,02,23,09,32,4.40
2017,02,23,09,33,4.50
2017,02,23,09,34,4.50
2017,02,23,09,35,4.60
2017,02,23,09,36,4.70
2017,02,23,09,37,4.80
2017,02,23,09,38,4.90
2017,02,23,09,39,5.00
2017,02,23,09,40,5.10
2017,02,23,09,41,5.10
2017,02,23,09,42,5.20
2017,02,23,09,43,5.20
2017,02,23,09,44,5.20
2017,02,23,09,45,5.30
2017,02,23,09,46,5.30
2017,02,23,09,47,5.40
2017,02,23,09,48,5.50
2017,02,23,09,49,5.60
2017,02,23,09,50,5.60
2017,02,23,09,51,5.70
2017,02,23,09,52,5.80
2017,02,23,09,53,5.90
2017,02,23,09,54,6.00
2017,02,23,09,55,6.10
2017,02,23,09,56,6.10
2017,02,23,09,57,6.10
2017,02,23,09,58,6.10
2017,02,23,09,59,6.10
2017,02,23,10,00,6.10
2017,02,23,10,01,6.10
2017,02,23,10,02,6.10
2017,02,23,10,03,6.10
2017,02,23,10,04,6.10
2017,02,23,10,05,6.20
2017,02,23,10,06,6.20
2017,02,23,10,07,6.20
2017,02,23,10,08,6.20
2017,02,23,10,09,6.20
2017,02,23,10,10,6.20
2017,02,23,10,11,6.20
2017,02,23,10,12,6.10
2017,02,23,10,13,6.10
2017,02,23,10,14,6.10
2017,02,23,10,15,6.00
2017,02,23,10,16,6.00
2017,02,23,10,17,6.00
2017,02,23,10,18,6.00
2017,02,23,10,19,6.00
2017,02,23,10,20,6.00
2017,02,23,10,21,6.00
2017,02,23,10,22,6.00
2017,02,23,10,23,6.10
2017,02,23,10,24,6.10
2017,02,23,10,25,6.10
2017,02,23,10,26,6.20
2017,02,23,10,27,6.20
2017,02,23,10,28,6.20
2017,02,23,10,29,6.30
2017,02,23,10,30,6.30
2017,02,23,10,31,6.30
2017,02,23,10,32,6.30
2017,02,23,10,33,6.30
2017,02,23,10,34,6.40
2017,02,23,10,35,6.40
2017,02,23,10,36,6.40
2017,02,23,10,37,6.50
2017,02,23,10,38,6.50
2017,02,23,10,39,6.50
2017,02,23,10,40,6.60
2017,02,23,10,41,6.60
2017,02,23,10,42,6.60
2017,02,23,10,43,6.70
2017,02,23,10,44,6.80
2017,02,23,10,45,6.90
2017,02,23,10,46,7.00
2017,02,23,10,47,7.10
2017,02,23,10,48,7.20
2017,02,23,10,49,7.20
2017,02,23,10,50,7.20
2017,02,23,10,51,7.30
2017,02,23,10,52,7.30
2017,02,23,10,53,7.40
2017,02,23,10,54,7.50
2017,02,23,10,55,7.50
2017,02,23,10,56,7.60
2017,02,23,10,57,7.60
2017,02,23,10,58,7.60
2017,02,23,10,59,7.60
2017,02,23,11,00,7.60
2017,02,23,11,01,7.60
2017,02,23,11,02,7.60
2017,02,23,11,03,7.60
2017,02,23,11,04,7.70
2017,02,23,11,05,7.70
2017,02,23,11,06,7.70
2017,02,23,11,07,7.70
2017,02,23,11,08,7.60
2017,02,23,11,09,7.60
2017,02,23,11,10,7.60
2017,02,23,11,11,7.50
2017,02,23,11,12,7.50
2017,02,23,11,13,7.40
2017,02,23,11,14,7.30
2017,02,23,11,15,7.30
2017,02,23,11,16,7.20
2017,02,23,11,17,7.10
2017,02,23,11,18,7.00
2017,02,23,11,19,7.00
2017,02,23,11,20,6.90
2017,02,23,11,21,6.80
2017,02,23,11,22,6.80
2017,02,23,11,23,6.70
2017,02,23,11,24,6.60
2017,02,23,11,25,6.60
2017,02,23,11,26,6.60
2017,02,23,11,27,6.60
2017,02,23,11,28,6.70
2017,02,23,11,29,6.70
2017,02,23,11,30,6.70
2017,02,23,11,31,6.80
2017,02,23,11,32,6.80
2017,02,23,11,33,6.90
2017,02,23,11,34,6.90
2017,02,23,11,35,7.00
2017,02,23,11,36,7.10
2017,02,23,11,37,7.10
2017,02,23,11,38,7.10
2017,02,23,11,39,7.20
2017,02,23,11,40,7.20
2017,02,23,11,41,7.20
2017,02,23,11,42,7.20
2017,02,23,11,43,7.20
2017,02,23,11,44,7.20
2017,02,23,11,45,7.20
2017,02,23,11,46,7.30
2017,02,23,11,47,7.30
2017,02,23,11,48,7.30
2017,02,23,11,49,7.30
2017,02,23,11,50,7.30
2017,02,23,11,51,7.40
2017,02,23,11,52,7.40
2017,02,23,11,53,7.40
2017,02,23,11,54,7.50
2017,02,23,11,55,7.50
2017,02,23,11,56,7.50
2017,02,23,11,57,7.50
2017,02,23,11,58,7.60
2017,02,23,11,59,7.60
2017,02,23,12,00,7.60
2017,02,23,12,01,7.70
2017,02,23,12,02,7.70
2017,02,23,12,03,7.70
2017,02,23,12,04,7.70
2017,02,23,12,05,7.70
2017,02,23,12,06,7.70
2017,02,23,12,07,7.70
2017,02,23,12,08,7.60
2017,02,23,12,09,7.60
2017,02,23,12,10,7.60
2017,02,23,12,11,7.50
2017,02,23,12,12,7.50
2017,02,23,12,13,7.40
2017,02,23,12,14,7.40
2017,02,23,12,15,7.30
2017,02,23,12,16,7.30
2017,02,23,12,17,7.20
2017,02,23,12,18,7.20
2017,02,23,12,19,7.20
2017,02,23,12,20,7.10
2017,02,23,12,21,7.10
2017,02,23,12,22,7.10
2017,02,23,12,23,7.10
2017,02,23,12,24,7.10
2017,02,23,12,25,7.10
2017,02,23,12,26,7.10
2017,02,23,12,27,7.20
2017,02,23,12,28,7.20
2017,02,23,12,29,7.20
2017,02,23,12,30,7.30
2017,02,23,12,31,7.30
2017,02,23,12,32,7.40
2017,02,23,12,33,7.40
2017,02,23,12,34,7.50
2017,02,23,12,35,7.50
2017,02,23,12,36,7.60
2017,02,23,12,37,7.70
2017,02,23,12,38,7.70
2017,02,23,12,39,7.80
2017,02,23,12,40,7.80
2017,02,23,12,41,7.90
2017,02,23,12,42,7.90
2017,02,23,12,43,7.90
2017,02,23,12,44,8.00
2017,02,23,12,45,8.00
2017,02,23,12,46,8.00
2017,02,23,12,47,8.10
2017,02,23,12,48,8.10
2017,02,23,12,49,8.10
2017,02,23,12,50,8.10
2017,02,23,12,51,8.00
2017,02,23,12,52,8.00
2017,02,23,12,53,7.90
2017,02,23,12,54,7.90
2017,02,23,12,55,7.90
2017,02,23,12,56,7.90
2017,02,23,12,57,7.90
2017,02,23,12,58,7.90
2017,02,23,12,59,7.90
2017,02,23,13,00,7.90
2017,02,23,13,01,7.90
2017,02,23,13,02,7.90
2017,02,23,13,03,8.00
2017,02,23,13,04,8.00
2017,02,23,13,05,8.10
2017,02,23,13,06,8.10
2017,02,23,13,07,8.20
2017,02,23,13,08,8.20
2017,02,23,13,09,8.20
2017,02,23,13,10,8.30
2017,02,23,13,11,8.30
2017,02,23,13,12,8.40
2017,02,23,13,13,8.40
2017,02,23,13,14,8.50
2017,02,23,13,15,8.60
2017,02,23,13,16,8.60
2017,02,23,13,17,8.70
2017,02,23,13,18,8.70
2017,02,23,13,19,8.70
2017,02,23,13,20,8.70
2017,02,23,13,21,8.70
2017,02,23,13,22,8.70
2017,02,23,13,23,8.70
2017,02,23,13,24,8.60
2017,02,23,13,25,8.60
2017,02,23,13,26,8.60
2017,02,23,13,27,8.50
2017,02,23,13,28,8.40
2017,02,23,13,29,8.40
2017,02,23,13,30,8.40
2017,02,23,13,31,8.30
2017,02,23,13,32,8.20
2017,02,23,13,33,8.20
2017,02,23,13,34,8.20
2017,02,23,13,35,8.20
2017,02,23,13,36,8.20
2017,02,23,13,37,8.20
2017,02,23,13,38,8.10
2017,02,23,13,39,8.10
2017,02,23,13,40,8.10
2017,02,23,13,41,8.00
2017,02,23,13,42,8.00
2017,02,23,13,43,8.00
2017,02,23,13,44,7.90
2017,02,23,13,45,7.90
2017,02,23,13,46,7.80
2017,02,23,13,47,7.80
2017,02,23,13,48,7.70
2017,02,23,13,49,7.70
2017,02,23,13,50,7.70
2017,02,23,13,51,7.70
2017,02,23,13,52,7.60
2017,02,23,13,53,7.60
2017,02,23,13,54,7.60
2017,02,23,13,55,7.50
2017,02,23,13,56,7.50
2017,02,23,13,57,7.50
2017,02,23,13,58,7.40
2017,02,23,13,59,7.40
2017,02,23,14,00,7.40
2017,02,23,14,01,7.30
2017,02,23,14,02,7.30
2017,02,23,14,03,7.30
2017,02,23,14,04,7.20
2017,02,23,14,05,7.20
2017,02,23,14,06,7.20
2017,02,23,14,07,7.20
2017,02,23,14,08,7.20
2017,02,23,14,09,7.10
2017,02,23,14,10,7.10
2017,02,23,14,11,7.10
2017,02,23,14,12,7.10
2017,02,23,14,13,7.10
2017,02,23,14,14,7.10
2017,02,23,14,15,7.00
2017,02,23,14,16,7.00
2017,02,23,14,17,7.00
2017,02,23,14,18,6.90
2017,02,23,14,19,6.90
2017,02,23,14,20,6.90
2017,02,23,14,21,6.90
2017,02,23,14,22,6.90
2017,02,23,14,23,6.90
2017,02,23,14,24,6.90
2017,02,23,14,25,6.90
2017,02,23,14,26,6.90
2017,02,23,14,27,6.90
2017,02,23,14,28,6.80
2017,02,23,14,29,6.90
2017,02,23,14,30,6.80
2017,02,23,14,31,6.80
2017,02,23,14,32,6.90
2017,02,23,14,33,6.90
2017,02,23,14,34,6.90
2017,02,23,14,35,6.90
2017,02,23,14,36,6.90
2017,02,23,14,37,6.90
2017,02,23,14,38,6.90
2017,02,23,14,39,6.90
2017,02,23,14,40,6.80
2017,02,23,14,41,6.80
2017,02,23,14,42,6.80
2017,02,23,14,43,6.80
2017,02,23,14,44,6.80
2017,02,23,14,45,6.80
2017,02,23,14,46,6.80
2017,02,23,14,47,6.80
2017,02,23,14,48,6.80
2017,02,23,14,49,6.80
2017,02,23,14,50,6.80
2017,02,23,14,51,6.80
2017,02,23,14,52,6.80
2017,02,23,14,53,6.80
2017,02,23,14,54,6.80
2017,02,23,14,55,6.80
2017,02,23,14,56,6.80
2017,02,23,14,57,6.80
2017,02,23,14,58,6.80
2017,02,23,14,59,6.80
2017,02,23,15,00,6.80
2017,02,23,15,01,6.80
2017,02,23,15,02,6.80
2017,02,23,15,03,6.80
2017,02,23,15,04,6.80
2017,02,23,15,05,6.80
2017,02,23,15,06,6.80
2017,02,23,15,07,6.80
2017,02,23,15,08,6.80
2017,02,23,15,09,6.80
2017,02,23,15,10,6.80
2017,02,23,15,11,6.80
2017,02,23,15,12,6.80
2017,02,23,15,13,6.80
2017,02,23,15,14,6.80
2017,02,23,15,15,6.80
2017,02,23,15,16,6.80
2017,02,23,15,17,6.90
2017,02,23,15,18,6.90
2017,02,23,15,19,6.90
2017,02,23,15,20,7.00
2017,02,23,15,21,7.00
2017,02,23,15,22,7.10
2017,02,23,15,23,7.10
2017,02,23,15,24,7.20
2017,02,23,15,25,7.30
2017,02,23,15,26,7.30
2017,02,23,15,27,7.40
2017,02,23,15,28,7.50
2017,02,23,15,29,7.50
2017,02,23,15,30,7.60
2017,02,23,15,31,7.70
2017,02,23,15,32,7.80
2017,02,23,15,33,7.80
2017,02,23,15,34,7.90
2017,02,23,15,35,7.90
2017,02,23,15,36,8.00
2017,02,23,15,37,8.10
2017,02,23,15,38,8.20
2017,02,23,15,39,8.20
2017,02,23,15,40,8.30
2017,02,23,15,41,8.30
2017,02,23,15,42,8.30
2017,02,23,15,43,8.40
2017,02,23,15,44,8.40
2017,02,23,15,45,8.50
2017,02,23,15,46,8.50
2017,02,23,15,47,8.50
2017,02,23,15,48,8.50
2017,02,23,15,49,8.50
2017,02,23,15,50,8.40
2017,02,23,15,51,8.40
2017,02,23,15,52,8.40
2017,02,23,15,53,8.40
2017,02,23,15,54,8.30
2017,02,23,15,55,8.30
2017,02,23,15,56,8.30
2017,02,23,15,57,8.30
2017,02,23,15,58,8.30
2017,02,23,15,59,8.30
2017,02,23,16,00,8.30
2017,02,23,16,01,8.30
2017,02,23,16,02,8.30
2017,02,23,16,03,8.30
2017,02,23,16,04,8.30
2017,02,23,16,05,8.30
2017,02,23,16,06,8.30
2017,02,23,16,07,8.30
2017,02,23,16,08,8.30
2017,02,23,16,09,8.30
2017,02,23,16,10,8.30
2017,02,23,16,11,8.30
2017,02,23,16,12,8.30
2017,02,23,16,13,8.30
2017,02,23,16,14,8.30
2017,02,23,16,15,8.30
2017,02,23,16,16,8.30
2017,02,23,16,17,8.30
2017,02,23,16,18,8.30
2017,02,23,16,19,8.30
2017,02,23,16,20,8.30
2017,02,23,16,21,8.30
2017,02,23,16,22,8.30
2017,02,23,16,23,8.30
2017,02,23,16,24,8.30
2017,02,23,16,25,8.30
2017,02,23,16,26,8.20
2017,02,23,16,27,8.20
2017,02,23,16,28,8.20
2017,02,23,16,29,8.20
2017,02,23,16,30,8.10
2017,02,23,16,31,8.10
2017,02,23,16,32,8.10
2017,02,23,16,33,8.10
2017,02,23,16,34,8.10
2017,02,23,16,35,8.00
2017,02,23,16,36,8.00
2017,02,23,16,37,8.00
2017,02,23,16,38,8.00
2017,02,23,16,39,7.90
2017,02,23,16,40,7.90
2017,02,23,16,41,7.90
2017,02,23,16,42,7.90
2017,02,23,16,43,7.90
2017,02,23,16,44,7.80
2017,02,23,16,45,7.80
2017,02,23,16,46,7.80
2017,02,23,16,47,7.70
2017,02,23,16,48,7.70
2017,02,23,16,49,7.70
2017,02,23,16,50,7.60
2017,02,23,16,51,7.60
2017,02,23,16,52,7.60
2017,02,23,16,53,7.50
2017,02,23,16,54,7.50
2017,02,23,16,55,7.40
2017,02,23,16,56,7.40
2017,02,23,16,57,7.30
2017,02,23,16,58,7.20
2017,02,23,16,59,7.20
2017,02,23,17,00,7.10
2017,02,23,17,01,7.00
2017,02,23,17,02,7.00
2017,02,23,17,03,6.90
2017,02,23,17,04,6.90
2017,02,23,17,05,6.90
2017,02,23,17,06,6.80
2017,02,23,17,07,6.80
2017,02,23,17,08,6.70
2017,02,23,17,09,6.70
2017,02,23,17,10,6.70
2017,02,23,17,11,6.60
2017,02,23,17,12,6.60
2017,02,23,17,13,6.50
2017,02,23,17,14,6.50
2017,02,23,17,15,6.50
2017,02,23,17,16,6.40
2017,02,23,17,17,6.40
2017,02,23,17,18,6.30
2017,02,23,17,19,6.30
2017,02,23,17,20,6.20
2017,02,23,17,21,6.20
2017,02,23,17,22,6.20
2017,02,23,17,23,6.10
2017,02,23,17,24,6.10
2017,02,23,17,25,6.10
2017,02,23,17,26,6.00
2017,02,23,17,27,6.00
2017,02,23,17,28,5.90
2017,02,23,17,29,5.90
2017,02,23,17,30,5.90
2017,02,23,17,31,5.80
2017,02,23,17,32,5.80
2017,02,23,17,33,5.70
2017,02,23,17,34,5.70
2017,02,23,17,35,5.70
2017,02,23,17,36,5.60
2017,02,23,17,37,5.60
2017,02,23,17,38,5.60
2017,02,23,17,39,5.50
2017,02,23,17,40,5.50
2017,02,23,17,41,5.40
2017,02,23,17,42,5.40
2017,02,23,17,43,5.40
2017,02,23,17,44,5.30
2017,02,23,17,45,5.30
2017,02,23,17,46,5.30
2017,02,23,17,47,5.20
2017,02,23,17,48,5.20
2017,02,23,17,49,5.20
2017,02,23,17,50,5.10
2017,02,23,17,51,5.10
2017,02,23,17,52,5.10
2017,02,23,17,53,5.00
2017,02,23,17,54,5.00
2017,02,23,17,55,4.90
2017,02,23,17,56,4.90
2017,02,23,17,57,4.90
2017,02,23,17,58,4.80
2017,02,23,17,59,4.80
2017,02,23,18,00,4.80
2017,02,23,18,01,4.70
2017,02,23,18,02,4.70
2017,02,23,18,03,4.70
2017,02,23,18,04,4.60
2017,02,23,18,05,4.60
2017,02,23,18,06,4.60
2017,02,23,18,07,4.50
2017,02,23,18,08,4.50
2017,02,23,18,09,4.40
2017,02,23,18,10,4.40
2017,02,23,18,11,4.30
2017,02,23,18,12,4.30
2017,02,23,18,13,4.30
2017,02,23,18,14,4.20
2017,02,23,18,15,4.20
2017,02,23,18,16,4.10
2017,02,23,18,17,4.10
2017,02,23,18,18,4.00
2017,02,23,18,19,4.00
2017,02,23,18,20,3.90
2017,02,23,18,21,3.90
2017,02,23,18,22,3.90
2017,02,23,18,23,3.80
2017,02,23,18,24,3.80
2017,02,23,18,25,3.80
2017,02,23,18,26,3.70
2017,02,23,18,27,3.70
2017,02,23,18,28,3.70
2017,02,23,18,29,3.60
2017,02,23,18,30,3.60
2017,02,23,18,31,3.60
2017,02,23,18,32,3.60
2017,02,23,18,33,3.50
2017,02,23,18,34,3.40
2017,02,23,18,35,3.40
2017,02,23,18,36,3.40
2017,02,23,18,37,3.30
2017,02,23,18,38,3.30
2017,02,23,18,39,3.30
2017,02,23,18,40,3.20
2017,02,23,18,41,3.20
2017,02,23,18,42,3.20
2017,02,23,18,43,3.20
2017,02,23,18,44,3.10
2017,02,23,18,45,3.10
2017,02,23,18,46,3.10
2017,02,23,18,47,3.00
2017,02,23,18,48,3.00
2017,02,23,18,49,3.00
2017,02,23,18,50,2.90
2017,02,23,18,51,2.90
2017,02,23,18,52,2.90
2017,02,23,18,53,2.90
2017,02,23,18,54,2.90
2017,02,23,18,55,2.80
2017,02,23,18,56,2.80
2017,02,23,18,57,2.80
2017,02,23,18,58,2.80
2017,02,23,18,59,2.80
2017,02,23,19,00,2.70
2017,02,23,19,01,2.70
2017,02,23,19,02,2.70
2017,02,23,19,03,2.70
2017,02,23,19,04,2.70
2017,02,23,19,05,2.70
2017,02,23,19,06,2.70
2017,02,23,19,07,2.70
2017,02,23,19,08,2.80
2017,02,23,19,09,2.80
2017,02,23,19,10,2.80
2017,02,23,19,11,2.80
2017,02,23,19,12,2.80
2017,02,23,19,13,2.80
2017,02,23,19,14,2.80
2017,02,23,19,15,2.80
2017,02,23,19,16,2.80
2017,02,23,19,17,2.80
2017,02,23,19,18,2.80
2017,02,23,19,19,2.80
2017,02,23,19,20,2.80
2017,02,23,19,21,2.80
2017,02,23,19,22,2.80
2017,02,23,19,23,2.80
2017,02,23,19,24,2.80
2017,02,23,19,25,2.80
2017,02,23,19,26,2.70
2017,02,23,19,27,2.70
2017,02,23,19,28,2.70
2017,02,23,19,29,2.70
2017,02,23,19,30,2.70
2017,02,23,19,31,2.70
2017,02,23,19,32,2.70
2017,02,23,19,33,2.60
2017,02,23,19,34,2.60
2017,02,23,19,35,2.60
2017,02,23,19,36,2.60
2017,02,23,19,37,2.60
2017,02,23,19,38,2.60
2017,02,23,19,39,2.60
2017,02,23,19,40,2.50
2017,02,23,19,41,2.50
2017,02,23,19,42,2.50
2017,02,23,19,43,2.50
2017,02,23,19,44,2.50
2017,02,23,19,45,2.40
2017,02,23,19,46,2.40
2017,02,23,19,47,2.40
2017,02,23,19,48,2.40
2017,02,23,19,49,2.40
2017,02,23,19,50,2.40
2017,02,23,19,51,2.30
2017,02,23,19,52,2.30
2017,02,23,19,53,2.30
2017,02,23,19,54,2.30
2017,02,23,19,55,2.30
2017,02,23,19,56,2.30
2017,02,23,19,57,2.30
2017,02,23,19,58,2.30
2017,02,23,19,59,2.30
2017,02,23,20,00,2.30
2017,02,23,20,01,2.30
2017,02,23,20,02,2.20
2017,02,23,20,03,2.20
2017,02,23,20,04,2.20
2017,02,23,20,05,2.20
2017,02,23,20,06,2.20
2017,02,23,20,07,2.20
2017,02,23,20,08,2.20
2017,02,23,20,09,2.20
2017,02,23,20,10,2.20
2017,02,23,20,11,2.10
2017,02,23,20,12,2.10
2017,02,23,20,13,2.10
2017,02,23,20,14,2.10
2017,02,23,20,15,2.10
2017,02,23,20,16,2.10
2017,02,23,20,17,2.10
2017,02,23,20,18,2.10
2017,02,23,20,19,2.10
2017,02,23,20,20,2.10
2017,02,23,20,21,2.10
2017,02,23,20,22,2.10
2017,02,23,20,23,2.10
2017,02,23,20,24,2.10
2017,02,23,20,25,2.10
2017,02,23,20,26,2.00
2017,02,23,20,27,2.00
2017,02,23,20,28,2.10
2017,02,23,20,29,2.10
2017,02,23,20,30,2.00
2017,02,23,20,31,2.00
2017,02,23,20,32,2.00
2017,02,23,20,33,2.00
2017,02,23,20,34,2.00
2017,02,23,20,35,2.00
2017,02,23,20,36,2.00
2017,02,23,20,37,2.00
2017,02,23,20,38,2.00
2017,02,23,20,39,2.00
2017,02,23,20,40,2.00
2017,02,23,20,41,2.00
2017,02,23,20,42,2.00
2017,02,23,20,43,2.00
2017,02,23,20,44,2.00
2017,02,23,20,45,2.00
2017,02,23,20,46,2.10
2017,02,23,20,47,2.10
2017,02,23,20,48,2.10
2017,02,23,20,49,2.10
2017,02,23,20,50,2.10
2017,02,23,20,51,2.10
2017,02,23,20,52,2.10
2017,02,23,20,53,2.10
2017,02,23,20,54,2.10
2017,02,23,20,55,2.10
2017,02,23,20,56,2.10
2017,02,23,20,57,2.10
2017,02,23,20,58,2.10
2017,02,23,20,59,2.10
2017,02,23,21,00,2.10
2017,02,23,21,01,2.10
2017,02,23,21,02,2.10
2017,02,23,21,03,2.10
2017,02,23,21,04,2.10
2017,02,23,21,05,2.10
2017,02,23,21,06,2.10
2017,02,23,21,07,2.10
2017,02,23,21,08,2.10
2017,02,23,21,09,2.10
2017,02,23,21,10,2.10
2017,02,23,21,11,2.10
2017,02,23,21,12,2.10
2017,02,23,21,13,2.10
2017,02,23,21,14,2.10
2017,02,23,21,15,2.10
2017,02,23,21,16,2.00
2017,02,23,21,17,2.00
2017,02,23,21,18,2.00
2017,02,23,21,19,2.00
2017,02,23,21,20,2.00
2017,02,23,21,21,2.00
2017,02,23,21,22,2.00
2017,02,23,21,23,2.00
2017,02,23,21,24,2.00
2017,02,23,21,25,2.00
2017,02,23,21,26,2.00
2017,02,23,21,27,2.00
2017,02,23,21,28,2.00
2017,02,23,21,29,2.00
2017,02,23,21,30,2.00
2017,02,23,21,31,2.00
2017,02,23,21,32,2.00
2017,02,23,21,33,2.00
2017,02,23,21,34,2.00
2017,02,23,21,35,2.00
2017,02,23,21,36,2.00
2017,02,23,21,37,2.00
2017,02,23,21,38,2.00
2017,02,23,21,39,2.00
2017,02,23,21,40,2.00
2017,02,23,21,41,2.00
2017,02,23,21,42,2.00
2017,02,23,21,43,2.00
2017,02,23,21,44,2.00
2017,02,23,21,45,2.00
2017,02,23,21,46,2.00
2017,02,23,21,47,2.00
2017,02,23,21,48,2.00
2017,02,23,21,49,2.00
2017,02,23,21,50,2.00
2017,02,23,21,51,1.90
2017,02,23,21,52,1.90
2017,02,23,21,53,1.90
2017,02,23,21,54,1.90
2017,02,23,21,55,1.90
2017,02,23,21,56,1.90
2017,02,23,21,57,1.90
2017,02,23,21,58,2.00
2017,02,23,21,59,2.00
2017,02,23,22,00,2.00
2017,02,23,22,01,2.00
2017,02,23,22,02,2.10
2017,02,23,22,03,2.10
2017,02,23,22,04,2.10
2017,02,23,22,05,2.20
2017,02,23,22,06,2.20
2017,02,23,22,07,2.20
2017,02,23,22,08,2.30
2017,02,23,22,09,2.30
2017,02,23,22,10,2.30
2017,02,23,22,11,2.30
2017,02,23,22,12,2.40
2017,02,23,22,13,2.40
2017,02,23,22,14,2.40
2017,02,23,22,15,2.40
2017,02,23,22,16,2.40
2017,02,23,22,17,2.40
2017,02,23,22,18,2.50
2017,02,23,22,19,2.50
2017,02,23,22,20,2.50
2017,02,23,22,21,2.50
2017,02,23,22,22,2.60
2017,02,23,22,23,2.60
2017,02,23,22,24,2.60
2017,02,23,22,25,2.60
2017,02,23,22,26,2.60
2017,02,23,22,27,2.60
2017,02,23,22,28,2.60
2017,02,23,22,29,2.60
2017,02,23,22,30,2.60
2017,02,23,22,31,2.60
2017,02,23,22,32,2.60
2017,02,23,22,33,2.60
2017,02,23,22,34,2.60
2017,02,23,22,35,2.50
2017,02,23,22,36,2.50
2017,02,23,22,37,2.50
2017,02,23,22,38,2.50
2017,02,23,22,39,2.40
2017,02,23,22,40,2.40
2017,02,23,22,41,2.40